#timestamp,LO_Frequency,Hit,StdDev 
1513137615.5,286047009.1,N
1513137635.4,286047007.5,N
1513137655.2,286047005.3,N
1513137675.0,286047000.6,N
1513137675.9,286047000.6,N
1513137695.8,286047000.0,N
1513137715.6,286046999.9,N
1513137735.5,286047003.5,N
1513137755.3,286047008.1,N
1513137775.1,286047009.0,N
1513137795.9,286047006.6,N
1513137815.7,286047008.3,N
1513137835.5,286047004.6,N
1513137855.4,286047001.8,N
1513137875.2,286047000.3,N
1513137895.1,286047003.9,N
1513137896.0,286047003.9,N
1513137915.8,286047002.9,N
1513137935.6,286047002.9,N
1513137955.5,286047001.5,N
1513137975.3,286047001.5,N
1513137995.2,286047004.0,N
1513138015.9,286047002.9,N
1513138035.7,286047001.9,N
1513138055.6,286046998.8,N
1513138075.4,286046998.9,N
1513138095.2,286047000.2,N
1513138115.1,286047003.4,N
1513138116.0,286047003.4,N
1513138135.8,286047001.5,N
1513138155.7,286047002.6,N
1513138175.5,286047004.3,N
1513138195.3,286047004.7,N
1513138215.2,286047007.6,N
1513138235.0,286047006.8,N
1513138235.9,286047006.8,N
1513138255.8,286047002.6,N
1513138275.6,286047002.0,N
1513138295.4,286046999.8,N
1513138315.3,286047002.7,N
1513138335.1,286046999.7,N
1513138355.8,286047002.9,N
1513138375.7,286047006.2,N
1513138395.5,286047007.6,Y
1513138415.4,286047000.5,P
1513138435.2,286046998.1,N
1513138455.0,286046999.5,N
1513138455.9,286046999.5,N
1513138475.8,286046998.5,N
1513138495.6,286046999.6,N
1513138515.5,286046997.3,N
1513138535.3,286047000.7,N
1513138555.1,286046999.8,N
1513138575.9,286047004.1,N
1513138595.7,286047005.9,Y
1513138615.5,286046999.9,P
1513138635.4,286047000.9,P
1513138655.2,286047001.6,P
1513138675.1,286047001.3,N
1513138676.0,286047001.3,N
1513138695.8,286047001.9,N
1513138715.6,286046999.0,N
1513138735.5,286046994.0,Y
1513138755.3,286046992.3,P
1513138775.2,286046993.4,N
1513138795.9,286046993.3,N
1513138815.7,286046993.9,N
1513138835.6,286046992.8,N
1513138855.4,286046991.3,Y
1513138875.2,286046999.3,P
1513138895.1,286046995.6,N
1513138896.0,286046995.6,N
1513138915.8,286046997.2,N
1513138935.7,286047002.8,N
1513138955.5,286046998.0,N
1513138975.3,286046997.7,N
1513138995.2,286046996.9,N
1513139015.0,286046995.3,N
1513139015.9,286046995.3,N
1513139035.8,286046998.5,N
1513139055.6,286046995.6,N
1513139075.4,286046991.8,Y
1513139095.3,286046997.1,P
1513139115.1,286046999.3,P
1513139135.9,286047003.6,P
1513139155.7,286047000.5,N
1513139175.5,286047002.1,N
1513139195.4,286046997.0,N
1513139215.2,286046994.6,N
1513139235.0,286046996.2,N
1513139235.9,286046996.2,N
1513139255.8,286046997.3,N
1513139275.6,286047000.5,N
1513139295.5,286046998.1,N
1513139315.3,286047001.9,N
1513139335.1,286046999.4,N
1513139355.9,286046996.6,N
1513139375.7,286046999.2,N
1513139395.5,286046996.9,N
1513139415.4,286046996.7,N
1513139435.2,286047000.1,N
1513139455.1,286047005.8,N
1513139456.0,286047005.8,N
1513139475.8,286047001.3,N
1513139495.6,286047003.8,N
1513139515.5,286047007.3,N
1513139535.3,286046999.9,N
1513139555.2,286047002.1,N
1513139575.9,286047001.4,N
1513139595.7,286047001.3,N
1513139615.6,286047000.6,N
1513139635.4,286047002.7,N
1513139655.2,286047000.3,N
1513139675.1,286047000.9,N
1513139676.0,286047000.9,N
1513139695.8,286047002.9,N
1513139715.7,286047005.3,N
1513139735.5,286047006.7,N
1513139755.3,286047008.0,N
1513139775.2,286047007.6,N
1513139795.0,286047000.6,N
1513139795.9,286047000.6,N
1513139815.8,286047001.9,N
1513139835.6,286047004.8,N
1513139855.4,286047001.3,N
1513139875.3,286047002.0,N
1513139895.1,286046999.7,N
1513139915.9,286047001.7,N
1513139935.7,286047000.4,N
1513139955.5,286047002.6,N
1513139975.4,286046995.4,N
1513139995.2,286047001.6,N
1513140015.0,286047001.9,N
1513140015.9,286047001.9,N
1513140035.8,286047005.0,N
1513140055.6,286046999.9,N
1513140075.5,286046998.8,N
1513140095.3,286046996.8,N
1513140115.1,286046996.1,N
1513140135.9,286046998.6,N
1513140155.7,286047005.5,N
1513140175.6,286047004.6,N
1513140195.4,286047004.5,N
1513140215.2,286047004.6,N
1513140235.1,286047004.4,N
1513140236.0,286047004.4,N
1513140255.8,286046999.8,N
1513140275.7,286047005.5,N
1513140295.5,286047002.3,N
1513140315.3,286047007.4,N
1513140335.2,286047004.5,N
1513140355.0,286047010.6,Y
1513140355.9,286047010.6,P
1513140375.8,286047007.3,N
1513140395.6,286047003.6,N
1513140415.4,286047005.8,N
1513140435.3,286047005.4,N
1513140455.1,286047005.2,N
1513140475.8,286047002.9,N
1513140495.7,286047007.6,N
1513140515.5,286047005.4,N
1513140535.4,286047002.9,N
1513140555.2,286047004.6,N
1513140575.0,286047004.8,N
1513140575.9,286047004.8,N
1513140595.8,286047003.6,N
1513140615.6,286047004.2,N
1513140635.4,286047004.2,N
1513140655.3,286047000.4,N
1513140675.1,286047005.0,N
1513140695.9,286047000.7,N
1513140715.7,286047002.0,N
1513140735.5,286047004.4,N
1513140755.4,286047004.3,N
1513140775.2,286047009.0,Y
1513140795.1,286047004.2,P
1513140796.0,286047004.2,P
1513140815.8,286047002.5,P
1513140835.6,286047001.2,N
1513140855.5,286046996.5,N
1513140875.3,286046996.6,N
1513140895.1,286046994.9,N
1513140915.9,286046994.4,N
1513140935.7,286046997.1,N
1513140955.6,286046997.5,N
1513140975.4,286047002.0,N
1513140995.2,286046999.7,N
1513141015.1,286047000.7,N
1513141016.0,286047000.7,N
1513141035.8,286047002.5,N
1513141055.6,286047001.6,N
1513141075.5,286047001.7,N
1513141095.3,286046998.4,N
1513141115.2,286046999.3,N
1513141135.9,286047000.4,N
1513141155.7,286047000.7,N
1513141175.6,286046999.0,N
1513141195.4,286046996.2,N
